Regional Weather Roundup
Issued by NWS Sioux Falls, SD

Home | Current Version | Previous Version | Text Only | Print | Product List | Glossary On
Versions: 1 2 3 4 5 6 7 8 9 10 11 12 13 14 15 16 17 18 19 20 21 22 23 24 25 26 27 28 29 30 31 32 33 34 35 36 37 38 39 40 41 42 43 44 45 46 47 48 49 50
000
ASUS43 KFSD 310602
RWRFSD

WEATHER ROUNDUP FOR SE SOUTH DAKOTA/SW MINNESOTA/NW IOWA
NATIONAL WEATHER SERVICE SIOUX FALLS SD
100 AM CDT SAT JUL 31 2021

NOTE: "FAIR" INDICATES FEW OR NO CLOUDS BELOW 12,000 FEET WITH NO
SIGNIFICANT WEATHER AND OR OBSTRUCTIONS TO VISIBILITY.


SDZ038>040-050-052>070-310700-
SOUTHEAST SOUTH DAKOTA

CITY           SKY/WX    TMP DP  RH WIND       PRES   REMARKS
BROOKINGS      PTCLDY    57  57 100 SW3       30.15S FOG
CHAMBERLAIN    NOT AVBL
HURON          CLEAR     62  61  96 SW5       30.14S FOG
6HR MIN TEMP:  60; 6HR MAX TEMP:  68;

MITCHELL       FOG       58  57  97 N3        30.14S VSB 1/4
6HR MIN TEMP:  58; 6HR MAX TEMP:  64;

SIOUX FALLS    MOCLDY    61  58  90 NE3       30.13F FOG
6HR MIN TEMP:  61; 6HR MAX TEMP:  64; 6HR PCP:  0.18;

WINNER         CLOUDY    61  56  83 N5        30.16R HAZE
YANKTON        CLOUDY    63  60  90 NE7       30.11F FOG
$$

MNZ071-072-080-081-089-090-097-098-310700-
SOUTHWEST MINNESOTA

CITY           SKY/WX    TMP DP  RH WIND       PRES   REMARKS
FAIRMONT       CLOUDY    61  60  97 SW3       30.13S FOG
MARSHALL       CLEAR     60  59  96 W5        30.13R
6HR MIN TEMP:  60; 6HR MAX TEMP:  69; 6HR PCP:  0.03;

REDWOOD FALLS  CLEAR     60  59  96 SW6       30.11R FOG
WORTHINGTON    PTCLDY    58  58 100 CALM      30.14F FOG
$$

IAZ001>003-012>014-020>022-031-032-NEZ013-014-SDZ071-310700-
NORTHWEST IOWA

CITY           SKY/WX    TMP DP  RH WIND       PRES   REMARKS
CHEROKEE       DRIZZLE   63  63 100 N3        30.11F
DENISON        CLOUDY    64  64 100 NE8       30.10R FOG
ESTHERVILLE    FOG       63  62  97 CALM      30.13S VSB 1/4
LE MARS        CLOUDY    64  63  94 E5        30.10S
MAURICE        CLOUDY    63  63 100 E7        30.10S FOG
SHELDON        FOG       61  61 100 NE8       30.11S VSB<1/4
SIOUX CITY     CLOUDY    64  60  87 NE9       30.09F FOG
6HR MIN TEMP:  64; 6HR MAX TEMP:  69; 6HR PCP: TRACE;

SPENCER        FOG       62  60  93 N5        30.13S VSB 1/4
6HR MIN TEMP:  62; 6HR MAX TEMP:  65; 6HR PCP: TRACE;

STORM LAKE     CLOUDY    63  63 100 CALM      30.11F FOG
$$

ABBREVIATIONS USED IN REMARKS
   TC - TEMPERATURE IN CELSIUS
  WCI - WIND CHILL INDEX
   HX - HEAT INDEX
  VSB - VISIBILITY




USA.gov is the U.S. government's official web portal to all federal, state and local government web resources and services.